• In Austria
  • List of Countries
  • For 7 days
  • Water Temperature
  • Satellite Maps
  • Weather Map
  • News
  • Weather Widgets
  • user-avatar
    Login

    Hourly Weather Zadnevo

    Today, 15 August, Wednesday

    Time Temperature Precipitation Wind Pressure Humidity
    00:00 +16°C° 0 mm 2 mps 738 mmHg 90%
    01:00 +15°C° 0 mm 2 mps 738 mmHg 92%
    02:00 +15°C° 0 mm 2 mps 737 mmHg 95%
    03:00 +16°C° 0.2 mm 2 mps 737 mmHg 95%
    04:00 +16°C° 0.2 mm 2 mps 737 mmHg 95%
    05:00 +16°C° 0.2 mm 3 mps 736 mmHg 95%
    06:00 +18°C° 0.3 mm 3 mps 736 mmHg 93%
    07:00 +19°C° 0.3 mm 3 mps 736 mmHg 90%
    08:00 +20°C° 0.3 mm 4 mps 735 mmHg 88%
    09:00 +21°C° 1.2 mm 4 mps 735 mmHg 87%
    10:00 +22°C° 1.2 mm 4 mps 735 mmHg 85%
    11:00 +23°C° 1.2 mm 4 mps 735 mmHg 84%
    12:00 +23°C° 1.2 mm 4 mps 735 mmHg 84%
    13:00 +23°C° 1.2 mm 4 mps 735 mmHg 84%
    14:00 +22°C° 1.2 mm 4 mps 735 mmHg 84%
    15:00 +22°C° 0.4 mm 4 mps 735 mmHg 85%
    16:00 +22°C° 0.4 mm 3 mps 735 mmHg 86%
    17:00 +21°C° 0.4 mm 3 mps 736 mmHg 87%
    18:00 +20°C° 0.1 mm 3 mps 736 mmHg 89%
    19:00 +19°C° 0.1 mm 2 mps 736 mmHg 92%
    20:00 +18°C° 0.1 mm 2 mps 736 mmHg 95%
    21:00 +17°C° 0 mm 2 mps 737 mmHg 96%
    22:00 +17°C° 0 mm 2 mps 737 mmHg 96%
    23:00 +16°C° 0 mm 2 mps 737 mmHg 97%

    Tomorrow, 16 August, Thursday

    Time Temperature Precipitation Wind Pressure Humidity
    00:00 +16°C° 0 mm 2 mps 737 mmHg 97%
    01:00 +15°C° 0 mm 1 mps 737 mmHg 98%
    02:00 +15°C° 0 mm 1 mps 738 mmHg 98%
    03:00 +15°C° 0 mm 1 mps 738 mmHg 98%
    04:00 +15°C° 0 mm 1 mps 738 mmHg 98%
    05:00 +15°C° 0 mm 1 mps 739 mmHg 98%
    06:00 +16°C° 0 mm 1 mps 739 mmHg 95%
    07:00 +18°C° 0 mm 1 mps 739 mmHg 92%
    08:00 +19°C° 0 mm 1 mps 739 mmHg 90%
    09:00 +20°C° 0.2 mm 1 mps 740 mmHg 85%
    10:00 +21°C° 0.2 mm 1 mps 740 mmHg 81%
    11:00 +22°C° 0.2 mm 1 mps 740 mmHg 77%
    12:00 +22°C° 0.5 mm 1 mps 740 mmHg 76%
    13:00 +23°C° 0.5 mm 2 mps 740 mmHg 75%
    14:00 +23°C° 0.5 mm 2 mps 740 mmHg 74%
    15:00 +23°C° 0.3 mm 2 mps 740 mmHg 75%
    16:00 +21°C° 0.3 mm 2 mps 740 mmHg 76%
    17:00 +21°C° 0.3 mm 2 mps 741 mmHg 77%
    18:00 +19°C° 0 mm 2 mps 741 mmHg 82%
    19:00 +18°C° 0 mm 2 mps 741 mmHg 88%
    20:00 +16°C° 0 mm 2 mps 741 mmHg 93%
    21:00 +15°C° 0 mm 1 mps 742 mmHg 94%
    22:00 +15°C° 0 mm 1 mps 742 mmHg 94%
    23:00 +14°C° 0 mm 1 mps 742 mmHg 95%

    Day after tomorrow, 17 August, Friday

    Time Temperature Precipitation Wind Pressure Humidity
    00:00 +14°C° 0 mm 1 mps 742 mmHg 96%
    01:00 +13°C° 0 mm 1 mps 743 mmHg 96%
    02:00 +13°C° 0 mm 1 mps 743 mmHg 96%
    03:00 +13°C° 0 mm 1 mps 743 mmHg 96%
    04:00 +12°C° 0 mm 1 mps 743 mmHg 96%
    05:00 +12°C° 0 mm 2 mps 744 mmHg 97%
    06:00 +14°C° 0 mm 2 mps 744 mmHg 90%
    07:00 +16°C° 0 mm 2 mps 744 mmHg 84%
    08:00 +17°C° 0 mm 2 mps 745 mmHg 78%
    09:00 +19°C° 0 mm 2 mps 745 mmHg 71%
    10:00 +20°C° 0 mm 2 mps 745 mmHg 64%
    11:00 +22°C° 0 mm 3 mps 745 mmHg 57%
    12:00 +24°C° 0 mm 3 mps 745 mmHg 55%
    13:00 +24°C° 0 mm 3 mps 745 mmHg 54%
    14:00 +25°C° 0 mm 2 mps 744 mmHg 52%
    15:00 +24°C° 0 mm 2 mps 744 mmHg 56%
    16:00 +24°C° 0 mm 2 mps 744 mmHg 59%
    17:00 +23°C° 0 mm 2 mps 744 mmHg 62%
    18:00 +20°C° 0 mm 2 mps 744 mmHg 69%
    19:00 +18°C° 0 mm 2 mps 744 mmHg 76%
    20:00 +16°C° 0 mm 2 mps 744 mmHg 83%
    21:00 +16°C° 0 mm 2 mps 744 mmHg 85%
    22:00 +15°C° 0 mm 2 mps 744 mmHg 86%
    23:00 +14°C° 0 mm 2 mps 744 mmHg 88%

    18 August, Saturday

    Time Temperature Precipitation Wind Pressure Humidity
    00:00 +14°C° 0 mm 2 mps 745 mmHg 89%
    01:00 +13°C° 0 mm 2 mps 745 mmHg 91%
    02:00 +13°C° 0 mm 2 mps 745 mmHg 92%
    03:00 +13°C° 0 mm 2 mps 745 mmHg 93%
    04:00 +13°C° 0 mm 2 mps 745 mmHg 93%
    05:00 +13°C° 0 mm 2 mps 745 mmHg 94%
    06:00 +15°C° 0 mm 2 mps 745 mmHg 86%
    07:00 +17°C° 0 mm 2 mps 745 mmHg 79%
    08:00 +19°C° 0 mm 2 mps 745 mmHg 71%
    09:00 +21°C° 0 mm 2 mps 745 mmHg 66%
    10:00 +22°C° 0 mm 3 mps 745 mmHg 60%
    11:00 +25°C° 0 mm 3 mps 745 mmHg 54%
    12:00 +25°C° 0 mm 3 mps 745 mmHg 53%
    13:00 +26°C° 0 mm 3 mps 744 mmHg 52%
    14:00 +26°C° 0 mm 3 mps 744 mmHg 52%
    15:00 +26°C° 0 mm 3 mps 744 mmHg 55%
    16:00 +25°C° 0 mm 3 mps 744 mmHg 59%
    17:00 +25°C° 0 mm 2 mps 744 mmHg 62%
    18:00 +23°C° 0 mm 2 mps 744 mmHg 69%
    19:00 +20°C° 0 mm 2 mps 744 mmHg 76%
    20:00 +18°C° 0 mm 2 mps 744 mmHg 83%
    21:00 +17°C° 0 mm 2 mps 744 mmHg 84%
    22:00 +16°C° 0 mm 2 mps 743 mmHg 86%
    23:00 +16°C° 0 mm 2 mps 743 mmHg 87%

    19 August, Sunday

    Time Temperature Precipitation Wind Pressure Humidity
    00:00 +15°C° 0 mm 2 mps 743 mmHg 89%
    01:00 +15°C° 0 mm 2 mps 743 mmHg 90%
    02:00 +14°C° 0 mm 2 mps 743 mmHg 92%
    03:00 +14°C° 0 mm 2 mps 743 mmHg 92%
    04:00 +14°C° 0 mm 2 mps 743 mmHg 91%
    05:00 +14°C° 0 mm 2 mps 743 mmHg 91%
    06:00 +14°C° 0 mm 3 mps 743 mmHg 84%
    07:00 +17°C° 0 mm 3 mps 743 mmHg 76%
    08:00 +19°C° 0 mm 3 mps 743 mmHg 69%
    09:00 +20°C° 0 mm 4 mps 742 mmHg 65%
    10:00 +22°C° 0 mm 4 mps 742 mmHg 61%
    11:00 +23°C° 0 mm 4 mps 742 mmHg 57%
    12:00 +25°C° 0 mm 4 mps 742 mmHg 57%
    13:00 +25°C° 0 mm 4 mps 741 mmHg 57%
    14:00 +25°C° 0 mm 4 mps 741 mmHg 57%
    15:00 +25°C° 0.2 mm 4 mps 740 mmHg 61%
    16:00 +23°C° 0.2 mm 4 mps 740 mmHg 65%
    17:00 +24°C° 0.2 mm 3 mps 740 mmHg 69%
    18:00 +21°C° 0.4 mm 3 mps 740 mmHg 76%
    19:00 +19°C° 0.4 mm 2 mps 740 mmHg 83%
    20:00 +18°C° 0.4 mm 2 mps 740 mmHg 89%
    21:00 +17°C° 0 mm 2 mps 740 mmHg 91%
    22:00 +17°C° 0 mm 2 mps 740 mmHg 93%
    23:00 +16°C° 0 mm 2 mps 739 mmHg 95%

    20 August, Monday

    Time Temperature Precipitation Wind Pressure Humidity
    00:00 +16°C° 0.1 mm 2 mps 739 mmHg 96%
    01:00 +15°C° 0.1 mm 2 mps 740 mmHg 97%
    02:00 +14°C° 0.1 mm 2 mps 740 mmHg 98%
    03:00 +14°C° 0 mm 2 mps 740 mmHg 98%
    04:00 +14°C° 0 mm 2 mps 740 mmHg 98%
    05:00 +14°C° 0 mm 2 mps 740 mmHg 98%
    06:00 +15°C° 0 mm 2 mps 740 mmHg 95%
    07:00 +16°C° 0 mm 2 mps 740 mmHg 91%
    08:00 +17°C° 0 mm 2 mps 740 mmHg 87%
    09:00 +18°C° 0 mm 3 mps 741 mmHg 77%
    10:00 +19°C° 0 mm 3 mps 741 mmHg 68%
    11:00 +20°C° 0 mm 3 mps 741 mmHg 59%
    12:00 +20°C° 0 mm 3 mps 741 mmHg 57%
    13:00 +21°C° 0 mm 3 mps 741 mmHg 56%
    14:00 +21°C° 0 mm 3 mps 741 mmHg 54%
    15:00 +21°C° 0 mm 3 mps 741 mmHg 56%
    16:00 +20°C° 0 mm 2 mps 741 mmHg 59%
    17:00 +20°C° 0 mm 2 mps 741 mmHg 61%
    18:00 +18°C° 0 mm 2 mps 741 mmHg 67%
    19:00 +16°C° 0 mm 2 mps 741 mmHg 73%
    20:00 +14°C° 0 mm 2 mps 741 mmHg 79%
    21:00 +14°C° 0 mm 2 mps 741 mmHg 81%
    22:00 +13°C° 0 mm 1 mps 741 mmHg 83%
    23:00 +12°C° 0 mm 1 mps 741 mmHg 85%
    Show more